GFSFLT2_sfc_dewp_105.txt.gz
Dewpoint
70 70 70 69 69 69 69 69 69 69 70 69 69 69 68 69 68 68 68 68 67 69 68 67 67 66 65 64 63 64 62 61
68 71 71 71 71 68 68 68 68 68 69 68 67 67 68 67 68 68 68 68 67 67 67 66 66 64 64 63 62 63 61 61
68 68 70 70 71 70 68 68 67 67 67 67 66 68 67 67 66 66 66 66 68 67 66 65 64 64 63 62 62 61 61 60
66 67 68 69 69 70 69 69 69 68 68 68 68 68 67 66 66 65 66 66 66 66 65 64 63 63 63 61 60 61 60 60
65 66 68 68 68 68 69 69 68 68 68 67 66 65 66 66 66 65 66 66 66 64 64 64 62 62 60 59 60 60 59 59
64 66 67 67 67 67 67 68 67 67 66 67 66 65 64 65 64 64 64 65 65 63 64 62 60 60 58 59 59 58 58 57
64 66 66 65 65 66 66 66 65 65 66 65 66 65 64 65 64 64 64 65 65 62 60 60 59 58 57 58 58 58 58 56
63 65 65 64 64 63 65 64 64 64 65 65 65 66 65 63 64 64 64 64 64 60 59 59 58 57 56 56 57 57 57 57
60 63 65 64 64 63 63 64 65 63 63 63 64 65 63 62 63 64 63 61 61 59 58 58 58 56 55 56 56 56 56 56
59 60 63 64 63 62 63 64 64 64 63 63 63 63 62 63 63 62 62 60 58 58 57 57 57 56 55 55 55 55 56 56
58 60 62 63 63 62 62 63 63 63 64 63 63 62 62 62 63 62 61 59 57 57 57 56 56 55 54 54 55 54 55 55
58 60 61 62 62 61 62 62 62 63 63 62 62 62 61 62 62 61 61 59 57 57 56 56 55 55 52 53 54 54 55 55
58 60 61 61 60 59 60 60 61 61 62 62 62 62 62 62 61 60 60 58 56 56 56 55 56 55 53 53 54 55 55 54
58 59 60 61 60 61 61 60 60 60 62 61 61 62 62 60 59 57 58 58 56 55 55 55 55 54 52 51 50 52 53 54
57 58 58 60 60 60 59 58 58 59 59 60 61 62 61 60 58 57 56 55 55 55 56 55 53 54 54 51 49 49 51 53
57 57 58 59 59 58 57 56 55 56 57 59 61 62 60 59 58 57 57 56 55 55 56 55 55 53 54 51 54 53 49 49
57 57 57 58 58 58 57 56 55 56 56 57 60 61 61 59 57 57 56 56 55 56 55 55 55 55 53 51 51 53 53 49
56 56 56 57 57 57 56 55 55 54 54 54 57 57 59 60 57 57 56 55 55 55 56 55 55 55 54 52 51 50 50 50
56 55 55 56 56 56 55 56 55 54 54 54 56 56 57 59 57 56 55 54 53 52 54 55 56 54 54 52 53 52 54 53
55 54 54 55 55 54 54 56 55 55 55 54 55 55 57 59 59 56 55 54 54 53 53 54 54 55 54 53 53 52 53 53

GFSFLT2_sfc_dewp_108.txt.gz
Dewpoint
71 71 70 69 69 70 69 69 70 70 70 70 71 70 69 69 69 69 67 68 68 69 69 67 67 67 66 65 64 65 61 61
69 70 70 70 70 68 68 68 69 69 70 69 68 68 68 68 68 67 67 68 68 68 67 67 66 66 65 64 64 64 60 60
67 68 69 69 69 69 68 68 68 68 69 68 66 69 67 68 66 66 67 67 67 67 67 66 65 64 64 64 63 60 60 59
64 67 67 68 66 69 69 69 69 69 69 68 68 67 67 64 65 66 66 66 66 66 66 65 64 64 64 64 64 61 59 59
63 67 68 68 66 65 68 70 69 70 69 69 68 68 68 67 67 64 64 65 62 66 66 65 64 64 63 64 64 61 58 57
64 66 67 68 65 65 65 68 70 69 69 70 68 67 67 67 67 63 63 62 64 64 65 65 64 63 63 63 62 59 55 57
63 66 68 67 67 64 64 66 68 69 68 69 69 66 66 66 66 66 63 64 65 64 65 63 62 62 62 61 59 57 56 54
63 65 68 67 67 67 66 66 65 67 68 67 68 67 66 66 66 64 64 64 65 65 64 63 62 61 60 59 58 57 57 55
61 65 67 67 66 66 65 64 65 66 66 66 67 67 66 66 66 65 64 65 65 65 63 63 62 60 59 58 57 57 56 55
57 59 64 66 65 64 63 64 65 65 65 65 66 65 66 65 65 65 65 65 64 62 60 59 59 59 59 57 56 56 55 54
52 59 62 64 65 64 64 65 65 65 64 64 64 64 65 64 64 64 64 62 61 60 59 58 58 58 58 56 56 55 54 51
47 54 60 62 65 65 63 64 64 64 64 63 64 64 63 64 64 64 62 59 58 58 58 58 57 57 57 55 57 54 54 53
46 52 59 60 63 62 61 62 62 62 64 63 63 63 64 63 63 63 61 58 57 58 57 56 57 58 57 57 56 55 54 54
51 54 58 60 61 61 61 62 62 62 63 64 63 63 63 62 62 62 60 58 58 58 57 56 56 57 55 54 52 53 55 54
51 54 57 60 61 61 61 62 62 62 62 62 62 62 62 62 62 61 60 59 57 57 57 55 54 56 57 54 50 49 52 54
53 54 56 58 60 60 60 59 58 59 60 61 62 62 62 62 62 61 59 59 57 56 57 56 55 55 56 57 54 52 49 50
55 55 56 58 59 60 60 59 58 59 59 59 60 62 62 62 60 58 57 57 57 57 57 56 56 55 55 54 54 53 52 49
56 56 56 58 59 60 60 60 58 57 57 58 58 60 61 61 59 58 57 57 56 57 57 56 56 56 56 55 54 52 51 49
54 55 55 57 59 59 60 60 59 58 57 57 56 57 59 60 58 58 57 56 57 56 57 56 56 56 55 56 55 53 52 51
52 54 54 56 57 58 58 59 58 57 56 55 55 56 58 60 58 58 57 57 57 57 56 57 57 56 55 55 55 54 52 49

GFSFLT2_sfc_dewp_111.txt.gz
Dewpoint
71 71 70 70 70 70 70 70 71 71 71 71 70 70 69 70 70 69 69 69 69 70 69 68 68 68 66 65 65 65 60 61
69 70 70 69 70 69 69 69 69 70 70 70 69 68 69 69 68 68 68 68 69 69 68 67 67 67 65 64 64 64 62 60
66 67 68 69 69 69 69 69 69 69 70 69 68 68 67 67 67 67 67 67 68 68 67 66 66 65 65 64 64 60 62 61
62 65 66 67 65 69 68 68 69 68 68 69 70 68 67 66 65 67 66 66 66 67 66 65 65 66 65 64 66 65 62 63
58 64 67 66 64 64 65 68 67 68 69 68 68 67 69 67 68 68 68 65 62 64 65 64 64 65 65 65 65 66 65 62
58 61 65 67 63 62 62 67 67 68 67 71 70 70 68 67 65 66 66 64 62 64 66 65 65 64 65 64 64 64 65 63
58 62 65 66 67 63 63 67 67 67 67 68 68 66 67 66 66 65 64 63 63 65 65 65 64 64 64 63 63 63 63 61
58 61 66 66 66 66 65 65 67 68 68 67 69 67 67 69 67 66 65 65 65 66 66 63 64 64 63 62 62 61 60 60
58 62 67 67 65 65 65 63 64 65 66 68 68 68 67 67 67 67 66 65 65 66 65 65 64 63 62 62 62 60 56 58
49 57 64 67 67 65 65 63 64 63 65 67 67 68 68 66 65 66 67 67 66 65 65 63 63 61 61 61 60 58 57 57
46 57 61 65 67 65 66 65 63 63 63 64 66 66 67 65 63 65 67 65 65 64 62 62 60 60 60 60 59 57 57 52
44 49 58 63 64 66 63 63 63 63 63 64 65 65 65 65 64 65 65 64 63 62 60 60 59 59 59 59 59 59 54 53
41 44 53 60 60 61 63 63 63 63 62 63 63 63 64 64 63 63 64 62 60 60 59 59 58 59 58 58 58 58 57 53
47 47 48 52 57 59 64 62 62 63 63 63 63 64 63 63 63 63 61 60 60 59 58 57 57 59 57 56 53 55 57 54
47 48 49 53 57 61 63 63 62 62 63 63 63 63 62 64 63 63 61 60 58 58 57 56 55 57 58 55 52 51 54 56
51 50 50 52 58 60 61 60 59 60 61 61 62 63 62 62 63 62 61 59 58 58 59 57 56 55 57 58 56 54 51 52
52 54 53 53 55 60 61 60 60 60 60 61 61 62 62 62 62 62 61 59 58 57 57 56 56 55 55 55 56 55 54 51
51 53 54 54 56 59 61 60 60 58 59 59 59 62 62 62 62 62 61 60 58 57 57 57 56 55 56 56 55 54 52 52
48 48 52 55 57 57 61 61 62 60 60 59 59 59 61 62 61 61 60 60 59 57 57 56 56 56 56 56 57 55 54 53
48 49 49 54 56 57 60 61 60 60 59 58 58 58 59 60 60 59 59 59 59 58 57 56 56 56 56 56 56 56 55 54

GFSFLT2_sfc_dewp_114.txt.gz
Dewpoint
70 70 70 70 70 70 70 71 71 71 71 71 71 70 70 70 70 70 69 69 69 69 68 68 68 68 67 66 65 64 64 64
70 70 70 70 70 69 69 70 70 70 71 70 70 69 69 69 69 69 68 68 68 69 68 67 67 67 66 65 64 64 63 64
70 69 69 70 69 69 69 69 69 69 70 70 68 70 69 69 68 67 68 68 68 69 67 67 66 66 65 64 64 62 64 63
66 68 68 69 66 69 69 69 69 70 70 70 69 70 69 67 67 67 67 66 67 67 67 66 65 65 64 64 64 65 64 65
62 68 69 68 66 68 68 68 68 68 69 69 70 69 68 67 68 67 67 66 65 66 65 65 65 65 64 64 64 64 64 65
59 65 68 68 66 66 67 66 68 68 68 69 69 69 68 68 67 67 66 66 64 64 64 63 64 64 64 64 63 64 64 65
58 63 67 68 69 66 67 68 68 68 68 69 68 68 68 68 67 66 65 65 63 64 64 64 64 64 63 64 63 63 63 62
60 61 66 67 68 68 66 69 68 68 68 68 69 68 68 67 67 66 66 66 65 65 65 64 64 64 63 63 63 62 63 63
61 63 66 67 68 67 68 67 68 67 68 68 68 69 68 67 67 66 66 66 64 65 64 64 64 63 62 62 62 62 62 62
59 60 66 67 67 67 65 66 67 68 67 67 68 68 68 67 66 66 66 65 65 64 64 63 63 62 62 62 61 61 62 62
51 63 67 68 68 67 67 67 67 65 66 66 67 67 67 66 65 65 66 65 64 64 63 62 62 62 61 61 61 61 61 59
52 61 64 68 67 67 67 66 65 65 65 65 66 64 67 66 64 65 65 65 64 63 62 63 61 61 61 60 61 61 60 57
48 52 63 65 65 66 65 65 64 64 64 65 64 64 66 65 64 64 64 63 62 62 61 60 59 60 59 59 59 60 59 57
51 51 52 58 62 62 64 64 64 63 64 64 64 65 65 63 64 63 63 62 61 61 59 58 58 60 57 56 54 56 57 57
50 50 51 54 54 60 63 65 64 62 62 62 64 64 64 64 63 63 62 61 60 60 59 57 56 58 59 56 52 51 54 56
51 53 53 53 57 57 63 62 61 61 62 62 63 64 63 63 63 62 61 61 59 59 59 58 57 56 57 57 56 55 52 51
53 55 55 55 56 59 63 61 61 61 61 61 62 62 62 62 63 62 60 60 59 58 58 57 57 56 56 55 55 55 55 52
53 53 51 56 57 59 62 61 60 60 61 60 61 62 62 63 62 62 61 59 59 58 58 57 57 57 56 55 54 53 53 53
50 50 49 52 58 58 61 62 61 60 60 61 60 61 61 62 62 61 61 59 58 58 58 57 56 56 56 56 56 56 55 54
48 47 48 50 52 57 59 62 61 60 61 60 60 60 60 62 62 61 60 60 59 58 58 57 56 56 55 56 57 57 57 55

GFSFLT2_sfc_dewp_117.txt.gz
Dewpoint
68 69 70 70 70 70 70 71 71 71 71 71 71 70 70 71 70 70 69 69 69 69 69 68 68 68 67 66 65 65 63 64
68 68 68 67 68 69 69 70 70 69 70 70 70 69 69 69 69 69 69 68 68 68 68 68 67 67 66 65 64 64 63 65
68 68 68 67 67 69 69 70 69 69 70 68 69 69 69 69 68 68 68 67 68 67 67 67 66 66 65 65 64 62 63 65
68 68 68 68 68 68 67 69 69 69 69 68 69 69 68 68 68 67 67 67 67 67 67 66 65 64 63 64 63 64 64 64
68 68 68 68 67 67 68 68 68 68 68 68 67 69 68 67 67 66 66 66 66 66 65 65 64 63 62 62 62 64 64 63
66 67 67 67 66 67 67 67 67 67 67 67 68 67 66 66 66 65 65 64 64 64 64 63 64 63 63 62 63 64 63 63
63 66 67 66 65 67 67 67 67 67 67 67 68 67 66 66 65 65 65 64 63 64 63 63 63 63 63 63 62 62 62 62
60 63 66 65 65 65 65 66 67 67 67 67 67 67 66 66 65 65 65 65 64 64 63 63 63 62 62 63 62 62 62 62
58 63 65 65 64 66 65 67 67 67 67 67 67 67 66 66 65 64 65 64 63 64 63 62 62 63 62 64 62 61 62 63
58 62 65 66 65 64 65 67 67 66 67 67 67 67 67 66 65 64 64 63 63 63 62 62 62 62 60 60 61 61 62 62
58 62 64 65 66 66 65 65 67 67 66 67 65 67 66 65 65 64 64 63 62 62 61 61 62 61 60 62 61 61 61 62
58 62 64 65 66 66 65 65 65 65 66 66 65 65 66 65 65 64 64 62 61 62 61 60 61 61 61 61 60 60 61 61
56 64 65 66 65 65 64 64 64 63 64 65 66 65 66 66 64 64 65 63 62 62 62 61 60 60 60 59 60 60 60 60
46 58 65 66 65 64 64 64 64 63 63 64 64 64 65 65 65 63 63 62 62 62 60 59 59 61 58 56 54 56 59 60
45 48 51 60 64 63 63 62 62 61 61 62 63 63 64 64 64 63 62 61 60 60 60 59 57 59 59 56 53 51 55 58
48 51 51 52 53 59 61 61 59 60 61 61 62 64 64 64 64 63 61 60 60 60 60 59 57 56 58 58 55 55 53 52
50 51 51 52 53 55 61 60 61 60 60 60 60 63 64 64 63 62 61 60 59 59 59 58 58 57 57 57 55 55 55 53
47 47 48 50 53 54 61 60 60 59 60 60 61 61 63 62 63 62 61 60 59 59 59 58 58 57 57 56 55 54 53 53
45 46 46 47 49 51 54 61 60 59 60 60 60 60 61 62 62 62 60 59 59 59 58 58 57 57 57 56 56 56 55 54
45 44 44 45 48 50 51 53 61 60 60 61 60 60 61 62 62 61 60 59 59 59 58 58 57 57 57 56 56 56 56 55

GFSFLT2_sfc_dewp_123.txt.gz
Dewpoint
68 69 70 70 70 70 69 70 70 70 70 70 71 70 70 70 70 71 70 70 70 69 68 68 68 68 67 65 64 65 63 64
68 69 69 70 70 69 68 69 69 69 70 70 69 69 69 69 69 70 70 70 70 69 68 67 67 67 66 65 64 64 61 63
67 68 68 68 69 69 69 69 69 69 69 69 68 68 68 69 68 68 69 68 68 68 68 67 66 66 65 64 64 63 59 62
66 67 66 67 67 69 69 69 70 70 70 69 68 67 67 68 68 68 68 67 67 67 67 66 66 64 64 64 62 62 62 62
65 66 66 67 67 67 67 68 68 69 68 67 68 67 67 67 66 67 66 67 66 65 65 64 64 63 62 61 61 62 62 61
65 65 65 66 67 66 66 66 66 66 68 66 67 68 67 65 66 65 65 65 64 64 63 63 62 62 61 61 61 61 61 61
64 65 65 65 65 66 66 65 66 66 66 67 67 67 67 66 64 64 64 63 63 62 62 62 61 61 61 61 61 61 61 61
64 65 65 65 65 65 65 66 66 66 66 67 67 67 67 65 64 64 63 63 63 63 62 61 61 61 60 60 61 61 60 60
66 64 64 65 65 64 64 65 65 65 66 66 67 66 66 65 64 64 64 63 62 61 60 60 60 61 60 60 60 60 60 60
65 66 65 65 65 66 65 65 65 65 65 66 66 66 66 65 64 64 63 63 62 62 61 59 59 60 59 60 61 61 60 60
63 65 66 66 65 66 66 65 66 66 65 65 65 66 66 65 64 64 63 63 62 62 60 60 60 60 60 60 61 61 61 61
61 64 65 66 66 65 64 64 65 65 66 66 65 66 66 65 64 63 63 62 62 61 61 60 61 61 61 61 61 61 61 61
59 61 64 65 65 64 63 64 65 65 66 66 66 66 65 65 65 63 64 63 61 61 60 61 61 62 59 59 60 61 61 61
55 59 61 64 64 64 64 65 64 65 65 66 66 66 66 65 64 64 64 64 62 61 62 60 61 61 59 57 55 57 59 60
50 56 59 63 64 64 62 62 61 61 62 64 65 65 66 65 65 64 63 63 62 61 62 61 59 60 59 56 53 51 54 59
56 57 59 62 63 62 61 61 60 62 63 64 64 64 65 65 64 64 64 64 63 62 63 62 60 59 59 58 56 54 52 52
47 49 50 52 56 59 60 60 61 61 60 61 62 64 64 64 65 64 64 64 63 63 62 61 60 59 58 57 55 53 55 53
44 45 45 47 50 50 51 51 54 58 59 60 60 61 63 64 64 64 64 63 62 62 61 61 60 59 59 57 56 55 54 54
42 43 43 45 45 46 47 49 50 50 56 59 60 59 60 62 63 63 63 62 62 61 61 60 59 58 58 57 57 56 56 55
40 40 40 41 42 42 43 45 46 49 53 57 60 61 61 62 62 62 62 62 60 60 60 60 59 58 57 57 57 57 58 56

GFSFLT2_sfc_dewp_126.txt.gz
Dewpoint
67 68 69 70 70 70 70 70 70 70 70 70 71 70 70 70 70 70 71 70 70 69 68 68 68 68 67 65 65 65 64 64
67 68 68 69 70 69 69 69 69 69 70 69 69 69 69 69 70 70 70 70 69 68 68 67 67 66 66 64 64 64 63 64
66 67 67 68 68 69 69 69 69 69 69 69 68 69 68 68 68 69 69 69 69 68 67 67 66 66 65 64 64 62 62 63
65 66 66 67 67 69 69 69 70 70 69 69 68 67 68 68 68 68 68 68 68 67 67 66 65 65 64 64 62 62 61 62
64 65 66 66 66 67 67 68 68 68 68 69 68 67 67 67 66 67 67 67 66 66 65 64 63 64 62 62 62 62 61 62
64 64 64 65 66 66 66 66 67 67 67 68 67 67 67 66 66 65 65 65 64 64 63 63 62 62 62 61 61 61 62 62
64 64 64 64 65 65 65 65 66 66 66 67 67 66 66 66 64 65 64 64 63 62 62 62 62 61 61 61 61 61 61 61
63 64 65 65 65 64 64 65 65 65 65 66 67 66 66 66 64 64 63 64 63 62 62 61 61 61 60 60 61 61 61 61
63 63 64 64 64 64 64 64 64 64 64 66 66 66 66 65 65 64 63 62 62 61 60 60 60 60 60 60 60 61 61 60
63 63 64 64 64 64 64 64 64 64 64 65 65 65 65 64 64 64 62 62 62 61 60 59 59 60 60 60 61 61 60 60
64 63 63 63 63 64 63 63 64 63 63 65 65 65 65 64 64 63 63 62 61 61 59 59 60 60 60 61 61 61 61 62
64 65 64 63 63 64 64 64 64 64 64 64 64 65 65 64 64 62 63 63 62 61 61 61 61 61 61 61 61 62 62 61
61 64 65 64 64 63 63 63 64 64 65 64 64 65 65 65 65 63 63 62 63 62 62 61 60 62 60 60 60 61 60 61
60 62 64 65 64 63 63 64 64 64 65 65 65 65 65 65 65 64 63 63 62 62 62 60 61 62 59 58 56 57 60 61
56 60 62 64 65 64 61 62 62 63 64 65 65 65 65 65 65 64 63 64 62 62 62 61 59 61 60 57 53 51 55 59
55 59 60 62 63 63 61 62 62 62 63 64 65 65 65 65 65 64 64 64 62 62 63 62 61 59 60 59 56 54 51 51
50 51 52 56 60 61 61 59 60 59 61 62 62 64 65 65 64 64 64 64 63 62 62 62 61 60 59 58 56 55 55 54
43 44 45 47 50 52 54 55 57 59 60 57 59 61 63 64 64 64 64 64 64 63 62 62 61 61 60 59 57 56 54 53
41 42 42 44 45 47 48 49 51 53 56 60 60 61 62 63 64 64 64 64 63 63 62 62 61 61 59 59 58 57 56 55
40 40 40 42 44 44 43 44 45 47 49 51 56 60 60 61 63 63 64 63 62 62 62 61 61 61 59 59 58 58 57 56

GFSFLT2_sfc_dewp_132.txt.gz
Dewpoint
72 71 71 70 70 70 69 70 70 71 71 71 71 71 71 71 71 72 71 71 70 69 69 68 68 67 67 66 66 66 62 61
71 71 71 71 71 69 68 69 69 70 70 70 70 70 70 70 71 71 71 70 69 69 68 68 67 66 66 66 65 65 60 61
69 69 69 70 70 70 69 69 69 69 70 69 68 69 70 71 69 70 70 69 68 68 68 67 67 66 65 65 65 59 60 60
67 68 68 69 66 70 69 68 68 69 69 70 68 68 68 68 68 69 69 68 68 67 67 66 66 64 65 65 61 61 61 61
65 68 69 68 66 67 66 67 67 67 69 69 68 67 68 68 68 69 68 68 65 65 66 64 64 63 62 63 62 63 60 60
63 65 67 68 64 66 68 67 66 66 67 70 68 67 68 68 67 67 67 66 65 63 62 63 64 64 64 64 64 62 60 61
62 65 66 67 67 65 67 67 67 67 67 70 68 67 68 67 67 66 66 66 64 65 63 63 64 64 63 63 63 63 63 60
61 63 66 65 65 66 67 68 67 67 67 69 70 68 68 67 67 66 68 67 65 64 64 63 62 62 63 63 63 61 62 62
56 63 65 66 66 66 66 66 66 67 67 68 69 69 68 68 67 66 66 68 67 65 65 64 62 62 62 63 62 63 61 62
52 58 63 65 65 64 64 64 66 66 67 68 69 68 68 68 67 67 66 69 67 66 65 64 63 62 62 61 62 62 63 63
42 58 62 64 65 64 65 65 66 66 67 66 68 68 68 67 66 67 68 68 67 66 65 65 63 62 61 62 63 63 62 61
36 53 62 64 65 65 64 63 65 64 64 65 67 67 68 67 66 66 67 65 66 66 66 65 64 63 60 62 63 63 62 63
31 45 62 64 64 64 63 63 63 63 63 64 65 66 67 67 66 66 68 65 65 66 65 65 65 64 64 63 63 64 64 62
31 38 58 62 63 63 63 63 61 62 63 64 64 65 66 66 66 65 66 64 66 65 65 65 65 65 62 62 60 61 63 63
30 32 53 61 62 63 62 63 61 60 60 61 64 65 66 66 66 65 65 65 65 65 65 64 63 64 64 60 59 55 56 60
31 34 48 59 62 61 61 60 58 58 60 60 61 64 65 66 67 66 67 66 65 65 65 65 65 62 64 64 62 59 54 54
34 35 43 57 62 62 62 61 60 59 60 62 65 65 65 65 66 67 66 66 65 65 64 65 66 65 63 63 63 61 59 56
44 42 43 56 63 63 64 62 61 63 65 66 65 66 66 67 65 64 64 62 61 62 65 65 65 66 65 64 62 60 59 58
51 50 48 51 53 55 63 65 66 65 65 65 65 64 63 63 64 62 61 61 60 59 62 64 65 64 65 65 64 63 61 59
41 42 43 44 46 47 50 52 57 56 58 62 64 64 64 65 63 62 62 61 62 63 63 64 65 65 64 65 64 63 63 61

GFSFLT2_sfc_dewp_135.txt.gz
Dewpoint
73 71 70 70 70 70 70 70 71 71 71 71 72 71 71 71 71 71 71 71 70 70 69 68 68 68 67 67 66 67 64 59
72 70 69 69 70 69 69 69 70 70 71 70 70 70 70 71 71 71 71 70 70 69 68 68 68 67 66 66 66 66 62 59
69 69 69 69 68 68 69 69 69 70 70 70 69 69 70 70 69 70 70 69 69 68 68 67 66 66 66 66 66 59 62 61
66 68 68 68 65 68 68 68 69 70 70 71 69 68 68 67 67 69 70 68 68 68 68 67 66 63 64 64 61 63 58 62
64 67 69 68 66 65 65 66 66 67 69 70 69 67 69 67 70 69 68 68 66 66 66 65 64 64 63 63 61 61 61 62
63 65 67 70 64 63 64 64 66 66 66 72 69 68 70 70 67 67 67 65 63 64 63 63 64 65 65 64 63 61 60 60
55 65 68 67 69 64 64 65 65 66 67 70 69 67 70 68 68 67 66 65 63 64 61 62 63 64 62 64 64 62 62 60
46 61 68 66 67 68 66 67 66 66 66 69 71 69 70 69 67 68 67 67 63 66 62 63 63 62 63 64 63 63 63 63
41 60 66 67 67 67 65 65 65 65 64 70 71 70 70 69 68 68 67 68 67 66 66 63 61 59 63 64 62 62 62 62
33 40 62 67 67 66 64 63 66 64 65 66 70 71 69 69 68 68 68 68 67 64 62 65 64 59 59 60 61 63 64 65
28 41 55 65 66 65 66 66 66 65 66 64 69 69 70 68 66 67 69 66 67 65 63 66 62 62 62 61 60 59 61 61
30 34 43 64 66 66 65 65 66 65 66 65 68 68 69 69 66 68 68 67 67 66 65 65 62 62 59 61 64 64 61 59
33 36 43 53 63 64 64 64 64 64 64 66 66 68 68 68 66 67 67 66 67 67 67 64 63 63 64 64 64 64 63 61
35 35 38 38 61 64 64 64 64 64 64 66 66 68 68 67 67 65 66 65 66 68 66 65 65 65 62 61 59 60 61 62
31 32 35 38 44 63 63 64 64 64 62 62 65 66 67 67 67 67 66 66 64 67 66 65 63 65 65 60 57 54 54 61
39 32 32 36 40 59 63 61 60 61 61 62 62 65 65 66 66 68 67 66 64 67 66 65 65 62 65 64 64 62 56 57
46 36 31 36 39 56 63 63 62 61 60 62 63 66 67 66 66 67 68 68 66 66 66 65 65 64 62 63 64 64 63 61
48 49 32 36 39 53 63 64 63 59 61 61 62 64 65 67 67 67 68 67 66 65 65 64 65 64 65 64 62 61 60 59
42 44 47 51 54 57 62 62 64 61 61 61 63 65 65 66 66 67 67 67 66 62 61 60 61 62 64 64 64 63 62 61
40 41 43 47 49 50 55 55 62 63 63 66 66 66 64 66 67 65 65 65 62 62 61 59 60 62 64 64 64 64 64 62

GFSFLT2_sfc_dewp_138.txt.gz
Dewpoint
72 70 70 70 70 71 70 71 71 71 71 72 72 71 71 71 71 72 72 71 71 70 69 69 68 68 67 67 66 67 64 64
72 70 70 70 71 69 70 70 70 70 71 71 70 70 70 70 71 71 71 70 70 69 68 68 67 67 66 66 66 66 63 63
71 70 69 69 69 70 70 70 70 70 70 70 69 71 71 70 70 70 70 69 69 69 68 67 66 66 66 65 65 62 61 65
69 70 69 69 66 69 70 70 71 71 71 71 71 70 70 68 68 69 69 69 68 68 67 66 66 65 65 65 64 62 63 65
64 70 70 69 67 68 67 68 69 70 71 71 70 69 69 68 69 69 69 68 67 67 67 66 64 64 63 63 63 63 63 63
53 67 69 69 67 68 67 66 67 68 69 70 69 68 69 68 69 69 68 67 65 65 65 65 65 64 65 65 64 63 64 65
40 59 68 69 70 67 67 67 67 67 68 69 69 68 68 69 69 69 67 66 65 65 64 64 63 64 64 63 63 61 63 65
37 46 69 68 69 69 67 67 67 67 67 68 69 69 68 68 69 68 67 66 64 64 63 63 63 63 63 63 63 62 61 62
40 44 54 68 67 68 67 66 67 65 66 69 69 69 69 68 68 67 67 67 67 65 65 65 63 62 62 63 63 63 62 61
37 34 42 64 67 67 65 66 65 66 65 68 69 68 69 68 67 68 68 68 67 66 66 64 64 61 62 62 62 61 61 63
38 45 46 47 66 66 67 66 66 64 65 66 69 69 68 68 67 68 69 68 67 66 65 65 63 62 62 62 62 61 62 61
45 39 45 50 48 67 66 67 65 65 65 63 68 69 68 68 67 67 67 67 67 65 65 65 63 62 59 58 62 64 62 62
46 48 48 42 41 61 64 63 65 66 64 66 67 69 68 68 67 67 66 66 66 66 66 64 63 64 61 62 62 63 63 62
45 45 47 43 35 38 63 64 65 65 65 65 65 68 67 67 68 66 66 65 67 66 65 64 64 64 61 61 58 60 62 63
42 43 45 48 40 37 45 64 64 64 64 64 65 68 67 66 67 67 67 65 65 67 65 63 62 64 63 60 57 55 58 61
39 42 44 47 41 37 44 53 60 61 63 63 65 65 67 67 67 66 66 65 64 66 66 64 63 62 63 63 63 61 57 56
38 40 42 46 49 43 40 46 58 62 64 63 64 65 67 67 66 65 65 66 65 66 66 65 64 63 62 61 61 62 61 59
37 38 40 43 48 51 50 46 51 60 61 62 63 64 66 66 66 65 65 66 66 66 65 64 64 63 63 62 61 60 60 59
36 37 37 41 45 49 52 54 49 55 60 61 61 63 63 65 65 64 65 66 66 65 64 63 63 63 62 61 62 62 62 61
34 36 36 38 44 47 50 51 54 57 62 61 60 61 63 65 64 65 65 66 65 64 64 63 62 61 60 61 61 62 62 61

GFSFLT2_sfc_dewp_141.txt.gz
Dewpoint
69 70 71 71 71 71 70 70 70 71 71 71 71 71 71 71 71 71 72 71 70 69 69 68 68 67 67 66 65 66 63 67
69 69 69 69 70 70 69 70 70 70 70 70 70 70 70 70 70 71 71 70 69 69 68 67 67 66 66 65 65 65 62 65
70 69 68 69 69 70 70 70 70 69 70 70 69 70 70 70 70 70 70 69 69 68 67 67 66 65 65 65 65 62 64 65
69 68 67 67 67 69 69 70 70 70 70 70 70 70 70 70 69 69 69 69 68 67 67 66 65 64 64 64 63 62 64 64
60 69 68 67 66 68 69 70 70 70 70 70 70 69 69 69 69 69 69 68 67 67 66 65 64 64 64 63 63 62 63 64
33 54 69 68 67 67 67 68 69 70 70 70 70 69 68 67 68 69 68 67 66 66 65 65 64 63 64 63 62 63 64 64
28 38 53 69 69 68 66 66 68 69 69 70 69 68 68 67 68 69 68 67 65 65 65 65 64 64 64 63 63 63 64 65
43 44 38 55 68 68 68 66 67 67 68 69 69 68 67 67 68 68 67 66 65 64 64 64 63 63 63 63 63 62 63 63
43 44 46 50 66 67 68 69 68 67 67 68 69 67 67 67 68 68 67 66 64 64 63 63 63 63 62 63 62 62 60 62
40 43 45 47 49 63 67 68 68 68 67 67 68 68 68 67 67 67 67 66 64 65 63 63 63 63 61 62 62 61 61 61
38 41 44 44 47 51 63 65 67 67 68 68 68 67 68 67 66 67 68 67 66 65 64 63 62 62 63 62 62 61 60 60
36 39 41 42 45 49 53 65 65 67 67 67 68 68 67 67 67 67 67 67 66 65 64 64 63 61 60 60 62 62 62 61
35 37 38 41 42 45 49 52 62 64 65 66 66 68 67 67 67 67 67 66 66 65 64 63 62 63 60 60 61 62 61 62
32 35 37 39 42 43 47 50 62 63 64 64 66 66 68 66 66 66 67 66 66 65 63 62 62 63 60 58 57 58 61 61
32 33 36 38 41 43 47 50 57 61 63 63 64 65 66 67 65 66 66 65 65 65 64 62 61 62 61 58 55 54 57 60
32 32 35 37 39 42 45 48 46 42 54 60 61 63 65 67 66 66 65 65 65 65 65 63 63 61 61 61 59 58 55 55
31 32 35 36 37 41 44 47 51 51 57 61 62 63 65 65 66 66 66 65 65 66 65 63 63 62 62 60 60 59 58 56
31 31 32 36 37 40 43 45 48 51 52 56 60 61 63 64 65 65 66 65 64 65 66 64 63 62 62 60 59 59 59 58
32 33 32 35 36 40 42 44 47 49 52 52 56 59 60 62 66 64 65 65 64 64 65 65 63 62 62 61 61 60 59 58
34 33 33 34 36 38 40 45 46 47 48 52 57 56 59 62 64 65 63 65 65 65 65 64 63 63 61 60 61 61 61 60

GFSFLT2_sfc_dewp_144.txt.gz
Dewpoint
69 70 71 70 70 70 70 70 70 70 70 70 71 71 70 71 71 71 71 71 70 69 68 68 68 67 66 65 65 66 64 65
68 68 69 70 71 70 69 69 69 69 70 70 69 69 70 70 70 71 71 70 70 69 68 67 67 66 65 65 64 64 64 65
68 68 68 68 69 70 70 70 69 69 70 69 68 70 70 70 70 70 70 70 69 68 68 67 66 65 65 64 63 62 64 65
68 67 67 68 69 69 70 71 71 70 70 70 70 69 69 70 69 69 69 69 68 67 67 66 66 64 64 64 61 62 64 64
43 52 62 67 67 68 68 69 69 69 70 70 70 69 69 69 69 69 69 68 67 66 66 65 64 63 63 62 62 62 64 64
42 46 50 51 67 68 68 69 69 68 69 69 69 69 69 69 68 68 68 68 66 66 65 64 64 64 63 63 62 62 63 63
37 41 46 50 52 61 68 68 69 69 69 70 70 69 68 68 68 68 67 67 65 65 64 64 64 63 64 63 62 62 64 64
35 38 41 46 48 50 52 68 68 68 69 69 69 69 68 67 67 68 67 67 65 65 64 64 63 63 63 64 63 62 63 63
34 36 38 42 43 46 50 54 66 68 69 69 69 69 68 67 67 67 68 67 65 64 64 64 63 63 63 63 63 62 62 63
33 34 36 38 40 43 46 51 55 65 68 69 69 68 68 67 67 67 68 66 65 64 63 63 63 62 62 62 63 61 61 62
32 33 34 36 39 42 45 48 51 58 67 67 68 68 67 67 66 67 68 66 65 64 63 63 62 62 62 62 62 61 59 61
32 32 33 35 38 40 43 45 48 51 60 66 65 67 67 67 66 67 67 66 65 64 63 63 62 62 62 61 62 62 60 60
30 32 33 34 37 38 39 42 44 49 52 61 65 65 67 67 66 66 67 66 65 64 64 63 62 62 59 59 60 62 61 61
30 30 32 33 35 36 38 41 46 48 51 55 64 64 65 65 66 66 66 66 66 65 64 63 62 62 59 58 56 58 60 60
30 30 31 32 34 37 38 41 44 48 50 51 59 64 64 64 65 67 66 66 65 65 64 63 61 61 61 57 54 54 55 58
30 31 31 32 34 36 37 39 40 44 46 50 52 55 63 64 64 65 67 66 65 65 65 64 62 60 59 60 57 56 54 53
30 31 31 32 33 35 37 39 41 44 46 50 51 53 60 62 62 64 65 66 65 65 65 64 63 62 61 60 57 57 56 54
30 30 32 33 33 35 36 38 39 42 44 46 51 53 56 60 62 63 63 64 65 65 65 65 63 62 62 61 60 58 57 56
30 31 32 33 34 35 35 38 38 40 41 43 45 49 53 56 60 61 63 63 62 65 65 64 64 62 62 61 62 61 58 58
30 30 33 34 35 35 35 37 37 39 41 42 45 48 53 55 54 57 58 60 63 62 64 65 64 63 62 62 61 60 60 58

GFSFLT2_sfc_dewp_147.txt.gz
Dewpoint
68 69 70 70 70 70 70 70 70 70 70 70 71 70 70 71 71 71 71 71 70 69 68 68 68 67 66 66 65 65 64 63
60 68 69 69 70 69 69 69 69 69 69 69 69 69 69 70 70 70 71 70 69 69 68 67 67 66 66 65 64 64 64 64
44 47 50 64 69 70 69 69 69 69 69 69 68 69 69 69 69 69 70 70 69 68 67 67 66 66 65 64 64 61 63 65
37 42 48 48 60 69 70 69 70 70 70 69 70 69 68 69 69 69 69 69 68 67 67 66 66 64 64 64 61 62 64 64
36 40 44 46 49 57 69 69 69 69 68 69 69 69 69 69 69 69 69 69 67 66 66 65 64 63 62 62 61 62 64 64
35 38 41 42 47 50 53 55 67 69 68 68 68 68 68 68 68 68 68 68 66 65 65 64 63 63 62 62 61 61 64 64
34 35 37 40 42 46 48 50 55 62 68 69 69 68 67 67 67 67 67 67 66 65 64 64 63 62 63 62 61 61 63 63
33 33 34 37 38 41 44 49 53 54 62 69 69 69 68 67 67 66 66 66 66 65 64 64 63 62 62 63 62 61 62 63
32 32 33 33 36 39 42 46 49 52 54 59 68 67 67 67 67 66 66 66 66 65 64 63 63 62 62 62 63 62 62 63
31 31 33 33 35 38 39 43 46 48 51 55 63 67 67 67 67 67 67 66 65 65 64 63 62 62 61 62 62 63 62 62
30 31 32 33 34 37 39 40 42 46 48 51 53 62 66 66 67 67 67 67 66 65 64 62 62 61 61 61 62 63 62 62
30 31 32 32 34 36 37 38 39 42 46 49 51 52 61 66 66 67 67 66 66 65 64 63 61 61 60 59 61 62 61 61
30 31 32 32 32 33 35 36 38 40 44 46 49 53 55 65 65 65 66 66 65 65 64 62 61 62 60 59 59 61 62 59
30 31 31 32 33 33 35 36 39 40 43 46 48 50 52 57 64 65 65 66 64 65 64 63 62 62 60 58 56 58 59 61
30 30 31 31 32 33 34 35 38 40 40 42 45 48 51 52 54 64 64 65 63 62 65 63 62 62 61 58 53 55 56 58
30 30 31 31 32 32 33 33 35 38 40 42 43 45 48 51 53 58 63 64 64 64 65 64 63 61 62 61 57 56 54 53
30 30 30 32 32 33 33 33 35 38 39 41 42 44 46 49 53 58 62 63 62 64 62 64 64 62 61 61 57 55 55 53
29 29 30 30 31 32 31 33 35 37 37 39 41 43 44 46 51 55 60 62 61 61 61 62 63 63 62 62 60 57 56 54
29 29 29 30 30 31 33 35 35 35 37 37 39 41 42 44 49 54 56 59 60 61 61 59 59 59 62 62 61 60 59 57
28 28 30 29 30 31 31 34 35 36 36 37 38 40 42 45 48 51 53 55 57 61 60 60 60 58 62 62 62 61 61 59

GFSFLT2_sfc_dewp_150.txt.gz
Dewpoint
45 49 52 61 69 69 69 69 70 70 70 70 71 71 70 71 71 71 71 71 71 69 69 68 68 68 67 66 65 66 64 64
38 44 46 49 60 69 69 69 67 69 69 69 69 69 69 70 70 70 71 71 70 69 68 67 67 67 66 65 64 65 64 63
36 40 40 45 49 53 68 69 69 68 69 69 68 69 69 69 69 69 70 70 69 68 67 67 66 66 65 65 64 62 63 63
35 37 37 41 43 48 51 56 68 69 69 69 68 69 68 69 69 68 69 69 68 67 67 66 66 64 64 65 62 61 63 64
34 35 36 38 38 43 48 49 53 62 68 69 69 69 69 69 69 69 69 69 68 67 66 65 64 63 63 62 62 61 63 64
33 34 34 35 37 40 45 45 49 53 54 61 67 68 68 68 68 67 67 68 67 65 65 65 64 63 62 62 62 61 63 64
32 32 34 33 35 38 39 43 47 49 51 54 58 67 68 67 67 67 67 67 67 66 65 64 64 63 62 61 61 60 62 64
31 31 33 33 34 36 39 43 45 47 49 50 53 57 65 67 67 67 67 67 66 66 65 64 63 63 62 62 61 61 61 63
30 31 32 33 33 35 38 40 43 44 46 48 51 52 54 61 66 66 67 67 66 65 65 63 63 62 62 62 62 62 61 62
31 31 32 32 33 35 36 38 39 42 44 46 48 50 52 53 60 66 67 67 66 65 65 63 63 62 62 61 62 63 63 63
31 31 32 32 33 34 36 37 38 39 42 44 46 48 49 51 54 59 66 67 66 65 65 64 62 62 61 61 61 62 63 63
31 31 32 32 33 34 35 35 37 38 39 42 45 47 50 50 53 57 65 66 66 65 65 64 63 62 61 60 60 61 62 63
30 31 32 32 32 32 33 33 35 37 39 42 42 44 46 48 50 52 54 64 65 65 63 63 62 62 59 59 59 61 62 62
30 30 31 31 31 32 33 34 35 35 36 38 41 43 45 45 47 50 52 54 63 64 62 63 63 62 59 58 56 57 60 61
29 30 30 31 32 32 32 33 34 35 35 36 38 41 44 43 45 48 52 54 56 63 64 63 62 62 62 58 55 54 56 59
29 29 30 30 31 31 31 30 31 34 35 36 37 39 42 42 43 46 49 53 57 61 63 63 63 60 62 61 59 57 56 54
29 29 29 29 30 31 31 31 33 33 35 36 37 39 40 42 44 44 48 52 55 60 61 60 60 59 60 60 60 57 56 55
28 28 29 29 30 30 31 31 32 33 33 35 36 37 39 40 42 44 47 49 52 57 60 60 60 60 59 60 60 57 56 54
27 28 28 29 29 31 31 31 32 34 34 34 35 35 37 38 40 43 45 48 49 51 55 59 59 58 57 55 58 60 60 58
27 28 28 29 29 31 31 31 33 33 34 34 35 35 36 37 39 40 41 42 43 46 52 58 59 59 57 58 56 59 61 60